Weather History for Montpelier, VT

Change the Weather History Date:

Tuesday, October 23, 2012

  Actual Average Record
Temperature  
Mean Temperature 43 °F 43 °F  
Max Temperature 55 °F 53 °F 76 °F (1979)
Min Temperature 31 °F 33 °F 19 °F (1955)
Degree Days  
Heating Degree Days 22 22  
Month to date heating degree days 380 416  
Since 1 July heating degree days 703 771  
Cooling Degree Days 0 0  
Month to date cooling degree days 0 0  
Year to date cooling degree days 291 263  
Moisture  
Dew Point 39 °F    
Average Humidity 73    
Maximum Humidity 96    
Minimum Humidity 50    
Precipitation  
Precipitation 0.00 in 0.10 in 1.32 in (1958)
Month to date precipitation 1.74 2.61  
Year to date precipitation 27.65 30.53  
Sea Level Pressure  
Sea Level Pressure 30.14 in    
Wind  
Wind Speed 4 mph (NW)    
Max Wind Speed 10 mph    
Max Gust Speed 16 mph    
Visibility 10 miles    
Events      
T = Trace of Precipitation, MM = Missing Value Source: NWS Daily Summary

Daily Weather History Graph

Daily Weather History Graph

Search for Another Location

Airport:

Trip Planner

Search our weather history database for the weather conditions in past years. The results will help you decide how hot, cold, wet, or windy it might be!

Date:

Astronomy

Oct. 23, 2012 Rise Set
Actual Time 7:15 AM EDT 5:52 PM EDT
Civil Twilight 6:46 AM EDT 6:22 PM EDT
Nautical Twilight 6:12 AM EDT 6:55 PM EDT
Astronomical Twilight 5:38 AM EDT 7:29 PM EDT
Moon 2:46 PM EDT (10/23) 12:51 AM EDT (10/23)
Length of Visible Light 11h 35m
Length of Day
10h 36m
Waxing Gibbous, 66% of the Moon is Illuminated
Oct 23
Waxing Gibbous
Oct 29
Full
Nov 6
Last Quarter
Nov 13
New
Nov 20
First Quarter

Hourly Weather History & Observations

Time (EDT) Temp. Windchill Dew Point Humidity Pressure Visibility Wind Dir Wind Speed Gust Speed Precip Events Conditions
12:51 AM 46.9 °F - 39.9 °F 77% 30.07 in 10.0 mi NNW 4.6 mph - N/A   Mostly Cloudy
1:13 AM 48.2 °F - 39.2 °F 71% 30.06 in 10.0 mi Variable 4.6 mph - N/A   Overcast
1:51 AM 48.0 °F - 41.0 °F 77% 30.07 in 10.0 mi NNW 5.8 mph - N/A   Overcast
2:38 AM 46.4 °F 44.3 °F 41.0 °F 81% 30.07 in 10.0 mi West 4.6 mph - N/A   Mostly Cloudy
2:51 AM 46.4 °F 43.5 °F 41.0 °F 81% 30.07 in 10.0 mi West 5.8 mph - N/A   Scattered Clouds
3:51 AM 45.0 °F 41.2 °F 41.0 °F 86% 30.09 in 10.0 mi WNW 6.9 mph - N/A   Clear
4:51 AM 43.0 °F 39.5 °F 39.9 °F 89% 30.12 in 10.0 mi West 5.8 mph - N/A   Clear
5:16 AM 44.6 °F 41.4 °F 41.0 °F 87% 30.10 in 10.0 mi WNW 5.8 mph - N/A   Mostly Cloudy
5:51 AM 44.1 °F 40.8 °F 41.0 °F 89% 30.13 in 10.0 mi WNW 5.8 mph - N/A   Mostly Cloudy
6:16 AM 42.8 °F 38.6 °F 41.0 °F 93% 30.11 in 10.0 mi West 6.9 mph - N/A   Scattered Clouds
6:51 AM 43.0 °F - 39.9 °F 89% 30.15 in 10.0 mi Calm Calm - N/A   Clear
7:51 AM 42.1 °F 38.4 °F 39.9 °F 92% 30.17 in 10.0 mi WNW 5.8 mph - N/A   Clear
8:51 AM 42.1 °F - 41.0 °F 96% 30.18 in 10.0 mi Calm Calm - N/A   Mostly Cloudy
9:21 AM 44.6 °F - 41.0 °F 87% 30.17 in 10.0 mi Calm Calm - N/A   Overcast
9:34 AM 46.4 °F - 41.0 °F 81% 30.17 in 1.2 mi Calm Calm - N/A   Haze
9:47 AM 46.4 °F 45.2 °F 41.0 °F 81% 30.17 in 10.0 mi North 3.5 mph - N/A   Overcast
9:51 AM 46.0 °F - 41.0 °F 83% 30.19 in 10.0 mi Calm Calm - N/A   Overcast
10:14 AM 46.4 °F - 39.2 °F 76% 30.17 in 10.0 mi Calm Calm - N/A   Scattered Clouds
10:51 AM 48.9 °F - 39.9 °F 71% 30.18 in 10.0 mi North 5.8 mph - N/A   Clear
11:51 AM 51.1 °F - 41.0 °F 68% 30.16 in 10.0 mi North 3.5 mph - N/A   Clear
12:51 PM 54.0 °F - 39.0 °F 57% 30.14 in 10.0 mi NNW 6.9 mph - N/A   Clear
1:51 PM 54.0 °F - 36.0 °F 51% 30.13 in 10.0 mi NW 8.1 mph - N/A   Clear
2:51 PM 54.0 °F - 39.0 °F 57% 30.13 in 10.0 mi North 5.8 mph - N/A   Clear
3:51 PM 55.4 °F - 39.2 °F 54% 30.11 in 10.0 mi NW 4.6 mph - N/A   Clear
4:51 PM 55.4 °F - 37.4 °F 51% 30.11 in 10.0 mi NW 5.8 mph - N/A   Clear
5:51 PM 51.1 °F - 34.0 °F 52% 30.15 in 10.0 mi NNW 4.6 mph - N/A   Clear
6:51 PM 44.1 °F - 34.0 °F 68% 30.17 in 10.0 mi Calm Calm - N/A   Clear
7:51 PM 39.0 °F - 33.1 °F 79% 30.19 in 10.0 mi Calm Calm - N/A   Clear
8:51 PM 37.9 °F - 34.0 °F 86% 30.22 in 10.0 mi Calm Calm - N/A   Clear
9:51 PM 36.0 °F 33.3 °F 32.0 °F 86% 30.22 in 10.0 mi South 3.5 mph - N/A   Clear
10:51 PM 34.0 °F - 32.0 °F 92% 30.22 in 10.0 mi Calm Calm - N/A   Clear
11:51 PM 35.1 °F - 32.0 °F 89% 30.23 in 10.0 mi Calm Calm - N/A   Clear